Weather in Peschanoye

Russia / Astrakhan Oblast     45°48′26″N   47°19′40″E
temp.,
°C
wind,
m/s
gust,
m/s
humid.,
%
clouds,
%
prec.,
mm/h
press.,
hPa
HPBL,
m
1 march, mon
mon101:00+1nnw2279100 0.0 101935
04:00+1wnw2282100 0.0 102031
07:000wnw349087 0.0 102263
10:00+3nw458270 0.0 1023405
13:00+5w567259 0.1 1025838
16:00+6wnw456170 0.3 10241132
19:00+4nnw348295 0.2 1025162
22:00+3nne129198 0.3 102629
2 march, tue
tue201:00+2wsw129670 0.0 102649
04:00+1nnw349771 0.0 102796
07:00+1w259899 0.1 1027267
10:00+3wsw568692 0.1 1028444
13:00+3w577684 0.1 1026853
16:00+4w696692 0.1 10241213
19:00+4wsw51071100 0.0 1022612
22:00+4sw61270100 0.1 1021540
3 march, wed
wed301:00+4wsw71373100 0.0 1019440
04:00+3wsw91582100 0.0 1017819
07:00+3wsw81577100 0.0 1015919
10:00+3w121783100 0.1 10151206
13:00+5wsw131879100 0.1 10141350
16:00+3wnw111493100 0.6 1014918
19:00+3wnw71175100 0.1 1016976
22:00+1nw5127579 0.2 1019462
4 march, thu
thu401:000wnw612790 0.0 1020485
04:000nw598232 0.0 1022697
07:00−2nw6106533 0.0 1024617
10:00+1wnw685517 0.0 1027700
13:00+4w67450 0.0 1026956
16:00+6wsw57390 0.0 10251251
19:00+3ssw47510 0.0 1024155
22:00+2s711580 0.0 1024249
5 march, fri
fri501:00+1s713620 0.0 1023313
04:00+1ssw611780 0.0 1022273
07:000ssw410880 0.0 1022227
10:00+4ssw68740 0.0 1023444
13:00+8ssw56530 0.0 1022823
16:00+9ssw44450 0.0 10201158
19:00+5s69730 0.0 1020280
22:00+3s48830 0.0 1021183